TimeCST,TemperatureF,Dew PointF,Humidity,Sea Level PressureIn,VisibilityMPH,Wind Direction,Wind SpeedMPH,Gust SpeedMPH,PrecipitationIn,Events,Conditions,WindDirDegrees,DateUTC
1:52 AM,48.0,44.1,86,29.94,10.0,NNW,3.5,-,N/A,,Clear,340,2012-12-02 07:52:00
2:52 AM,46.0,42.1,86,29.94,10.0,NNW,4.6,-,N/A,,Clear,340,2012-12-02 08:52:00
3:52 AM,46.0,43.0,89,29.95,10.0,NNW,4.6,-,N/A,,Clear,340,2012-12-02 09:52:00
4:52 AM,45.0,42.1,90,29.96,10.0,NNW,3.5,-,N/A,,Clear,340,2012-12-02 10:52:00
5:52 AM,43.0,39.9,89,29.97,10.0,NNW,3.5,-,N/A,,Clear,340,2012-12-02 11:52:00
6:52 AM,44.1,42.1,93,29.99,10.0,Calm,Calm,-,N/A,,Clear,0,2012-12-02 12:52:00
7:52 AM,43.0,39.9,89,30.01,8.0,NNW,5.8,-,N/A,,Clear,340,2012-12-02 13:52:00
8:35 AM,48.2,44.6,87,30.02,10.0,Calm,Calm,-,N/A,,Mostly Cloudy,0,2012-12-02 14:35:00
8:45 AM,51.8,44.6,76,30.02,10.0,NNE,3.5,-,N/A,,Scattered Clouds,30,2012-12-02 14:45:00
8:52 AM,50.0,44.1,80,30.03,10.0,NNE,3.5,-,N/A,,Scattered Clouds,30,2012-12-02 14:52:00
9:00 AM,51.8,44.6,76,30.03,10.0,Calm,Calm,-,N/A,,Mostly Cloudy,0,2012-12-02 15:00:00
9:52 AM,55.0,48.0,77,30.04,10.0,Calm,Calm,-,N/A,,Overcast,0,2012-12-02 15:52:00
10:52 AM,60.1,55.0,83,30.03,8.0,South,8.1,-,N/A,,Mostly Cloudy,170,2012-12-02 16:52:00
11:02 AM,60.8,55.4,82,30.03,9.0,South,5.8,-,N/A,,Scattered Clouds,180,2012-12-02 17:02:00
11:52 AM,64.0,55.0,73,30.01,10.0,South,6.9,-,N/A,,Clear,180,2012-12-02 17:52:00
12:52 PM,66.9,52.0,59,29.98,10.0,South,9.2,-,N/A,,Clear,180,2012-12-02 18:52:00
1:52 PM,69.1,51.1,53,29.96,10.0,SSE,9.2,-,N/A,,Clear,160,2012-12-02 19:52:00
2:52 PM,70.0,48.9,47,29.95,10.0,South,11.5,-,N/A,,Clear,180,2012-12-02 20:52:00
3:52 PM,70.0,48.9,47,29.94,10.0,South,6.9,-,N/A,,Clear,180,2012-12-02 21:52:00
4:52 PM,66.9,48.9,52,29.93,10.0,South,9.2,-,N/A,,Clear,190,2012-12-02 22:52:00
5:52 PM,64.0,48.9,58,29.93,10.0,SSE,5.8,-,N/A,,Clear,160,2012-12-02 23:52:00
6:52 PM,60.1,51.1,72,29.92,10.0,SSE,5.8,-,N/A,,Clear,150,2012-12-03 00:52:00
7:52 PM,61.0,54.0,78,29.91,10.0,SSE,6.9,-,N/A,,Clear,150,2012-12-03 01:52:00
8:52 PM,64.9,59.0,81,29.90,10.0,SSE,9.2,-,N/A,,Partly Cloudy,160,2012-12-03 02:52:00
9:52 PM,64.9,59.0,81,29.89,10.0,South,10.4,-,N/A,,Clear,170,2012-12-03 03:52:00
10:52 PM,68.0,59.0,73,29.88,10.0,South,17.3,-,N/A,,Clear,180,2012-12-03 04:52:00
11:52 PM,68.0,59.0,73,29.88,10.0,South,20.7,28.8,N/A,,Clear,180,2012-12-03 05:52:00